Volver al catálogo

STARLINK-5919

ActivoComunicacionesVLEO
NORAD 55927·PAYLOAD·🇺🇸 United States

Lanzado Mar 17, 2023 desde Vandenberg Space Force Base

Loading…

Próximos Pases (próximas 24 horas)

TLE

ActualizadoSource: CelesTrak SupGP

Época: Sep 15, 2026, 02:35 UTC

1 55927C 23037P   26258.10812500 -.00010143  00000+0 -85014-3 0  2582
2 55927  70.0021 186.7402 0002551 273.9799  75.0232 14.98332576    15

Sigue STARLINK-5919 en tiempo real con AllMySat

Download on the App Store